Weather Roundup
Issued by NWS Springfield, MO

Home | Current Version | Previous Version | Text Only | Print | Product List | Glossary On
Versions: 1 2 3 4 5 6 7 8 9 10 11 12 13 14 15 16 17 18 19 20 21 22 23 24 25 26 27 28 29 30 31 32 33 34 35 36 37 38 39 40 41 42 43 44 45 46 47 48 49 50
000
NZUS99 KSGF 170357
HRRSGF

HOURLY WEATHER
NATIONAL WEATHER SERVICE SPRINGFIELD MO
1000 PM CST SAT DEC 16 2017

......SGF CWA......

CITY           SKY/WX    TMP DP  RH WIND       PRES   REMARKS
SPRINGFIELD    CLOUDY    49  26  41 S12       30.03R
JOPLIN         CLOUDY    50  28  42 S12       30.01S
ROLLA          CLOUDY    46  27  47 S15       30.04S

......SURROUNDING SGF CWA......

CITY           SKY/WX    TMP DP  RH WIND       PRES   REMARKS
CHANUTE        CLOUDY    50  28  42 SE9       29.97S
PARSONS        CLOUDY    52  28  39 S6        29.98S
COFFEYVILLE    CLOUDY    54  28  36 S18G24    29.96F
EMPORIA        MOCLDY    46  26  45 SE8       29.93S
HARRISON AR    CLOUDY    48  27  44 S8        30.04F

......KANSAS AND MISSOURI......

CITY           SKY/WX    TMP DP  RH WIND       PRES   REMARKS
KANSAS CTY INT CLOUDY    46  27  47 S12       29.96R
SEDALIA        CLOUDY    48  28  46 S8        30.02R
ST JOSEPH      MOCLDY    42  29  59 CALM      29.95R
ST LOUIS       CLOUDY    48  29  47 S8        30.05S
WICHITA        CLOUDY    53  26  35 S10       29.89S
TOPEKA         CLOUDY    42  27  55 SE3       29.95R
OLATHE         CLOUDY    43  27  53 S7        29.97R

......TENNESSEE......

CITY           SKY/WX    TMP DP  RH WIND       PRES   REMARKS
MEMPHIS        NOT AVBL
NASHVILLE      CLOUDY    42  30  62 SE5       30.23S

......ARKANSAS.......

CITY           SKY/WX    TMP DP  RH WIND       PRES   REMARKS
FAYETTEVILLE   LGT RAIN  45  36  70 S8        30.04S
FT SMITH       LGT RAIN  46  42  86 E6        30.06F
LITTLE ROCK    CLOUDY    46  41  82 SE5       30.12F

......OKLAHOMA.......

CITY           SKY/WX    TMP DP  RH WIND       PRES   REMARKS
TULSA          LGT RAIN  47  43  86 S15       30.01R
MCALESTER      LGT RAIN  46  42  86 S9        30.06R
OKLAHOMA CITY  CLOUDY    44  37  76 S18G29    29.95S

......IOWA............

CITY           SKY/WX    TMP DP  RH WIND       PRES   REMARKS
DES MOINES     NOT AVBL
QUAD CITIES    CLOUDY    27  21  78 NE3       30.01S

......ILLINOIS........

CITY           SKY/WX    TMP DP  RH WIND       PRES   REMARKS
QUINCY         NOT AVBL
CHICAGO        PTCLDY    28  26  92 N5        30.06R WCI  23




USA.gov is the U.S. government's official web portal to all federal, state and local government web resources and services.